Weather reports worldwide

Advertisment
Jersey Airport, United Kingdom (3895): temperature & dewpoint: 11.10.2018 07:00:00 - 17.10.2018 07:00:00 (BST)Jersey Airport, United Kingdom (3895): temperature -20cm & temperature -100cm: 11.10.2018 07:00:00 - 17.10.2018 07:00:00 (BST)Jersey Airport, United Kingdom (3895): wind speed & gusts: 11.10.2018 07:00:00 - 17.10.2018 07:00:00 (BST)Jersey Airport, United Kingdom (3895): wind direction: 11.10.2018 07:00:00 - 17.10.2018 07:00:00 (BST)Jersey Airport, United Kingdom (3895): reduced air pressure: 11.10.2018 07:00:00 - 17.10.2018 07:00:00 (BST)Jersey Airport, United Kingdom (3895): visibility: 11.10.2018 07:00:00 - 17.10.2018 07:00:00 (BST)Jersey Airport, United Kingdom (3895): sunshine duration: 11.10.2018 07:00:00 - 17.10.2018 07:00:00 (BST)Jersey Airport, United Kingdom (3895): precipitation: 11.10.2018 07:00:00 - 17.10.2018 07:00:00 (BST)
Date & Time tt [°C] td [°C] tt -20cm [°C] tt -100cm [°C] ff [km/h] ff [kn] fx [km/h] fx [kn] dd ppp [hPa] vv [km] sd [min] rr [mm]
17.10.2018 07:00:00 11,1 10,0 - - 5 3 - - S 1018,5 10 0 0,0
17.10.2018 06:00:00 11,2 9,9 - - 4 2 - - SSW 1018,4 10 0 0,0
17.10.2018 05:00:00 11,3 9,8 - - 11 6 - - SW 1018,2 10 0 0,0
17.10.2018 04:00:00 9,9 8,6 - - 11 6 - - SW 1018,2 10 0 0,0
17.10.2018 03:00:00 9,7 8,2 - - 13 7 - - WSW 1018,6 50 0 0,0
17.10.2018 02:00:00 10,3 8,5 - - 13 7 - - WSW 1018,8 10 0 0,0
17.10.2018 01:00:00 11,7 10,1 - - 11 6 - - SW 1018,9 10 - 0,0
17.10.2018 00:00:00 12,4 11,5 - - 2 1 - - - 1019,1 10 0 0,0
16.10.2018 23:00:00 11,7 10,9 - - 4 2 - - SSW 1019,1 10 0 0,2
16.10.2018 22:00:00 11,6 11,0 - - 2 1 - - S 1019,2 10 0 0,0
16.10.2018 21:00:00 12,1 11,0 - - 5 3 - - WNW 1019,1 24 0 0,0
16.10.2018 20:00:00 13,0 11,5 - - 5 3 - - WNW 1018,9 10 0 0,0
16.10.2018 19:00:00 13,0 11,2 - - 5 3 - - W 1018,5 10 0 0,0
16.10.2018 18:00:00 13,9 12,2 - - 11 6 - - W 1018,2 45 0 0,0
16.10.2018 17:00:00 14,2 13,1 - - 11 6 - - W 1018,0 10 0 0,0
16.10.2018 16:00:00 13,8 13,5 - - 13 7 - - W 1017,8 10 0 0,0
16.10.2018 15:00:00 13,8 13,4 - - 16 9 - - W 1017,6 4,0 0 0,0
16.10.2018 14:00:00 14,5 13,5 - - 13 7 - - W 1017,3 10 0 0,0
16.10.2018 13:00:00 14,9 14,0 - - 11 6 - - W 1017,1 10 0 0,0
16.10.2018 12:00:00 15,1 14,6 - - 13 7 - - WNW 1016,8 8 0 0,0
16.10.2018 11:00:00 15,4 15,2 - - 8 4 - - SSE 1016,3 7 0 0,0
16.10.2018 10:00:00 15,3 15,2 15,7 15,5 8 4 - - SW 1016,2 8 0 0,0
16.10.2018 09:00:00 14,4 14,4 - - 5 3 - - S 1015,7 10 0 0,0
16.10.2018 08:00:00 12,8 12,8 - - 8 4 - - SE 1015,0 10 0 0,0
16.10.2018 07:00:00 13,0 13,0 - - 4 2 - - S 1014,7 10 0 0,0
16.10.2018 06:00:00 13,9 13,9 - - 4 2 - - SSE 1013,9 10 0 0,0
16.10.2018 05:00:00 13,6 13,5 - - 5 3 - - S 1013,8 5 0 0,0
16.10.2018 04:00:00 12,9 12,8 - - 5 3 - - E 1013,5 10 0 0,0
16.10.2018 03:00:00 13,5 13,2 - - 4 2 - - SSW 1013,2 16 0 0,0
16.10.2018 02:00:00 12,8 11,7 - - 13 7 - - ESE 1013,2 10 0 0,0
16.10.2018 01:00:00 13,6 13,4 - - 21 11 - - E 1012,9 10 - 0,0
16.10.2018 00:00:00 12,8 12,4 - - 18 10 - - E 1013,2 10 0 0,0
15.10.2018 23:00:00 13,4 12,7 - - 11 6 - - ENE 1013,1 10 0 0,0
15.10.2018 22:00:00 13,3 12,4 - - 9 5 - - NE 1012,9 10 0 0,0
15.10.2018 21:00:00 13,2 12,3 - - 9 5 - - NE 1012,6 10 0 0,0
15.10.2018 20:00:00 12,8 12,2 - - 8 4 - - ENE 1012,0 10 0 0,0
15.10.2018 19:00:00 13,7 12,5 - - 5 3 - - ENE 1011,5 10 6 0,0
15.10.2018 18:00:00 15,0 13,0 - - 15 8 - - SE 1011,0 25 24 0,0
15.10.2018 17:00:00 15,0 13,1 - - 16 9 - - ESE 1010,9 40 0 0,0
15.10.2018 16:00:00 15,3 13,3 - - 18 10 - - SSE 1010,2 10 0 0,0
15.10.2018 15:00:00 15,3 13,7 - - 21 11 - - SE 1009,5 19 0 0,0
15.10.2018 14:00:00 15,3 13,9 - - 24 13 - - SSE 1009,4 10 0 0,0
15.10.2018 13:00:00 14,9 14,0 - - 24 13 - - SSE 1008,8 27 0 0,0
15.10.2018 12:00:00 14,9 14,1 - - 22 12 - - SSE 1008,6 10 0 0,0
15.10.2018 11:00:00 15,1 14,4 - - 26 14 - - SSE 1007,6 10 0 0,0
15.10.2018 10:00:00 15,0 14,5 15,7 15,5 24 13 - - SE 1007,1 10 0 0,0
15.10.2018 09:00:00 14,8 14,1 - - 18 10 - - SSE 1006,6 10 0 0,0
15.10.2018 08:00:00 14,4 14,1 - - 16 9 - - SSE 1005,6 10 0 0,0
15.10.2018 07:00:00 14,7 14,4 - - 16 9 - - SSE 1005,1 7 0 0,0
15.10.2018 06:00:00 14,8 14,5 - - 16 9 - - SSE 1004,6 5 0 0,2
15.10.2018 05:00:00 15,2 15,0 - - 18 10 - - SE 1004,2 6 0 0,6
15.10.2018 04:00:00 14,6 14,5 - - 11 6 - - ENE 1004,5 1,3 0 0,0
15.10.2018 03:00:00 14,2 13,7 - - 15 8 - - NE 1004,5 10 0 0,0
15.10.2018 02:00:00 14,0 13,3 - - 15 8 - - NE 1004,6 10 0 0,0
15.10.2018 01:00:00 13,8 13,3 - - 22 12 - - NE 1004,3 10 - 0,0
15.10.2018 00:00:00 13,5 12,8 - - 28 15 - - NNE 1004,4 17 0 0,0
14.10.2018 23:00:00 13,5 12,8 - - 29 16 - - NNE 1005,2 10 0 0,0
14.10.2018 22:00:00 13,6 12,8 - - 31 17 46 25 NNE 1005,2 10 0 0,0
14.10.2018 21:00:00 13,5 13,0 - - 31 17 46 25 NNE 1005,1 11 0 0,0
14.10.2018 20:00:00 13,5 13,1 - - 22 12 - - NNE 1004,8 10 0 0,4
14.10.2018 19:00:00 13,7 12,7 - - 18 10 - - NNE 1004,8 10 0 0,0
14.10.2018 18:00:00 13,4 12,4 - - 22 12 - - NNE 1004,6 16 0 0,0
14.10.2018 17:00:00 13,6 11,9 - - 26 14 - - NNE 1004,4 10 0 0,0
14.10.2018 16:00:00 13,6 11,7 - - 28 15 50 27 NNE 1004,3 10 0 0,0
14.10.2018 15:00:00 13,5 11,6 - - 31 17 52 28 NNE 1004,5 10 0 0,0
14.10.2018 14:00:00 13,6 11,6 - - 35 19 55 30 NNE 1003,9 10 0 0,0
14.10.2018 13:00:00 13,3 11,7 - - 37 20 63 34 NNE 1004,2 10 0 0,0
14.10.2018 12:00:00 12,8 11,5 - - 34 18 63 34 N 1004,6 10 0 0,2
14.10.2018 11:00:00 12,5 11,9 - - 35 19 67 36 N 1004,2 10 0 1,8
14.10.2018 10:00:00 12,9 12,5 16,0 15,4 46 25 74 40 NNE 1003,3 6 0 1,4
14.10.2018 09:00:00 13,1 12,8 - - 39 21 72 39 N 1002,5 6 0 9,2
14.10.2018 08:00:00 14,0 13,7 - - 21 11 - - N 1003,6 3,0 0 2,0
14.10.2018 07:00:00 14,3 14,1 - - 28 15 46 25 NE 1001,4 8 0 0,6
14.10.2018 06:00:00 14,3 13,9 - - 22 12 - - NNE 1002,8 10 0 0,0
14.10.2018 05:00:00 14,3 13,9 - - 16 9 - - NNE 1003,8 10 0 0,2
14.10.2018 04:00:00 14,6 14,0 - - 13 7 - - N 1005,3 10 0 0,2
14.10.2018 03:00:00 15,0 14,0 - - 9 5 - - N 1006,4 6 0 0,8
14.10.2018 02:00:00 15,1 13,6 - - 9 5 - - NNW 1006,7 10 0 0,0
14.10.2018 01:00:00 15,2 13,8 - - 9 5 - - NNW 1007,1 10 - 0,0
14.10.2018 00:00:00 15,4 13,8 - - 9 5 - - WNW 1008,4 10 0 0,0
13.10.2018 23:00:00 15,7 13,9 - - 18 10 - - W 1008,7 10 0 0,0
13.10.2018 22:00:00 18,0 15,2 - - 21 11 - - S 1008,1 10 0 0,0
13.10.2018 21:00:00 19,2 14,9 - - 28 15 - - S 1008,1 23 0 0,0
13.10.2018 20:00:00 19,5 15,3 - - 24 13 - - S 1008,6 10 0 0,0
13.10.2018 19:00:00 19,9 15,0 - - 24 13 48 26 S 1008,7 10 0 0,0
13.10.2018 18:00:00 19,9 15,1 - - 28 15 48 26 S 1008,1 10 24 0,0
13.10.2018 17:00:00 21,8 15,2 - - 26 14 50 27 S 1008,0 10 60 0,0
13.10.2018 16:00:00 22,3 15,2 - - 29 16 50 27 S 1007,9 28 54 0,0
13.10.2018 15:00:00 22,5 15,4 - - 34 18 52 28 S 1008,5 10 60 0,0
13.10.2018 14:00:00 21,8 15,6 - - 37 20 48 26 S 1009,1 10 54 0,0
13.10.2018 13:00:00 19,9 15,9 - - 37 20 52 28 SSE 1009,9 10 48 0,0
13.10.2018 12:00:00 20,3 16,2 - - 35 19 55 30 SSE 1010,2 18 54 0,0
13.10.2018 11:00:00 18,6 15,8 - - 31 17 - - SSE 1011,1 17 18 0,0
13.10.2018 10:00:00 17,9 15,3 15,7 15,4 26 14 - - SSE 1011,4 10 36 0,0
13.10.2018 09:00:00 17,6 14,5 - - 29 16 48 26 SSE 1011,7 27 24 0,0
13.10.2018 08:00:00 17,5 13,4 - - 31 17 - - S 1011,4 10 0 0,0
13.10.2018 07:00:00 17,0 13,4 - - 29 16 - - SSE 1011,7 10 0 0,0
13.10.2018 06:00:00 16,7 13,2 - - 28 15 - - SSE 1011,5 10 0 0,0
13.10.2018 05:00:00 17,5 12,8 - - 18 10 - - SSE 1011,5 10 0 0,0
13.10.2018 04:00:00 17,8 12,4 - - 26 14 - - SSE 1011,8 10 0 0,0
13.10.2018 03:00:00 18,1 12,6 - - 26 14 46 25 S 1012,8 10 0 0,0
13.10.2018 02:00:00 18,5 12,9 - - 24 13 46 25 S 1013,0 10 0 0,0
13.10.2018 01:00:00 18,6 13,2 - - 29 16 52 28 SSE 1012,9 10 - 0,0
13.10.2018 00:00:00 18,1 13,4 - - 35 19 55 30 SSE 1013,0 29 0 0,0
12.10.2018 23:00:00 18,3 13,3 - - 34 18 54 29 SSE 1013,3 30 0 0,0
12.10.2018 22:00:00 18,2 13,5 - - 26 14 - - SSE 1013,4 10 0 0,0
12.10.2018 21:00:00 18,9 13,7 - - 22 12 - - S 1013,4 10 0 0,0
12.10.2018 20:00:00 19,0 14,1 - - 28 15 55 30 S 1013,3 10 0 0,0
12.10.2018 19:00:00 19,9 13,4 - - 39 21 61 33 SSW 1013,4 10 0 0,0
12.10.2018 18:00:00 20,2 12,6 - - 39 21 54 29 SSW 1012,8 10 24 0,0
12.10.2018 17:00:00 20,4 12,8 - - 28 15 59 32 S 1012,0 10 48 0,0
12.10.2018 16:00:00 20,9 12,8 - - 41 22 65 35 SSW 1011,8 10 54 0,0
12.10.2018 15:00:00 21,0 13,8 - - 35 19 52 28 S 1011,6 18 36 0,0
12.10.2018 14:00:00 19,9 14,7 - - 34 18 52 28 SSE 1011,2 10 18 0,0
12.10.2018 13:00:00 18,1 14,0 - - 35 19 61 33 SSE 1010,9 10 6 0,0
12.10.2018 12:00:00 17,4 13,0 - - 31 17 57 31 SSE 1011,0 10 12 0,0
12.10.2018 11:00:00 17,3 11,5 - - 34 18 55 30 S 1011,3 10 18 0,0
12.10.2018 10:00:00 16,6 11,7 15,4 15,4 28 15 54 29 SSE 1011,2 10 0 0,0
12.10.2018 09:00:00 16,1 12,0 - - 35 19 50 27 SSE 1010,7 23 0 0,0
12.10.2018 08:00:00 15,9 12,2 - - 31 17 55 30 S 1010,4 10 0 0,0
12.10.2018 07:00:00 15,3 12,7 - - 34 18 59 32 SSE 1009,9 10 0 0,0
12.10.2018 06:00:00 15,3 13,0 - - 31 17 55 30 SSE 1009,9 10 0 0,0
12.10.2018 05:00:00 14,8 13,2 - - 37 20 54 29 S 1010,1 11 0 0,0
12.10.2018 04:00:00 15,0 13,3 - - 31 17 52 28 S 1009,9 10 0 0,0
12.10.2018 03:00:00 15,0 12,9 - - 28 15 48 26 S 1009,1 10 0 0,0
12.10.2018 02:00:00 14,8 12,5 - - 28 15 50 27 SSE 1009,2 10 0 0,0
12.10.2018 01:00:00 14,8 12,6 - - 24 13 46 25 S 1009,6 10 - 0,0
12.10.2018 00:00:00 14,5 12,5 - - 24 13 46 25 S 1009,4 10 0 0,0
11.10.2018 23:00:00 14,6 12,3 - - 26 14 - - S 1009,2 10 0 0,0
11.10.2018 22:00:00 14,8 11,9 - - 24 13 - - SSW 1008,4 10 0 0,0
11.10.2018 21:00:00 15,0 13,1 - - 26 14 - - SSW 1007,8 10 0 0,0
11.10.2018 20:00:00 15,1 13,4 - - 22 12 - - S 1007,0 10 0 0,0
11.10.2018 19:00:00 14,9 13,4 - - 21 11 - - S 1006,3 10 6 0,0
11.10.2018 18:00:00 15,7 14,0 - - 18 10 - - S 1005,7 10 24 0,0
11.10.2018 17:00:00 15,4 14,3 - - 18 10 - - S 1005,6 10 0 0,2
11.10.2018 16:00:00 15,1 14,7 - - 21 11 52 28 S 1004,5 10 0 1,6
11.10.2018 15:00:00 16,9 14,4 - - 24 13 46 25 S 1003,5 10 0 0,0
11.10.2018 14:00:00 17,7 14,1 - - 31 17 48 26 S 1002,9 10 0 0,0
11.10.2018 13:00:00 17,1 14,6 - - 35 19 48 26 SSE 1002,8 10 0 0,0
11.10.2018 12:00:00 16,9 14,1 - - 34 18 48 26 SSE 1002,7 12 0 0,0
11.10.2018 11:00:00 16,1 14,1 - - 28 15 46 25 SSE 1002,4 12 0 0,0
11.10.2018 10:00:00 15,8 13,8 15,5 15,4 31 17 48 26 SSE 1002,4 10 0 0,0
11.10.2018 09:00:00 15,6 13,9 - - 29 16 - - S 1002,6 10 0 0,0
11.10.2018 08:00:00 15,2 13,6 - - 26 14 - - SSE 1001,7 10 0 0,0
11.10.2018 07:00:00 14,4 13,0 - - 26 14 - - SE 1001,9 10 0 0,0

tt = temperature
td = dewpoint
tt -20cm = temperature -20cm
tt -100cm = temperature -100cm
ff = wind speed
fx = gusts
dd = wind direction
ppp = reduced air pressure
vv = visibility
sd = sunshine duration
rr = precipitation

Next stations